Cloud_Cover
100 100 82 92 100 100 5 0 2 78 81 76 31 77 5 0 0 0 0 0 0 0 5 1 5 0 0 3 1 1 0 0 0 0 0 1 5 2 2 5 5 5 5 5
100 99 100 100 100 100 100 16 2 5 70 30 92 96 7 5 4 1 0 0 0 0 0 5 0 0 0 0 2 2 5 5 1 4 0 5 5 5 5 5 5 5 5 5
15 87 100 100 100 100 73 26 48 36 4 6 8 98 32 9 18 11 41 2 0 0 4 3 0 3 0 0 0 5 2 5 5 2 5 5 5 5 5 5 5 5 5 5
5 94 100 100 100 100 84 98 100 100 89 3 6 2 98 2 100 12 96 94 4 0 0 9 86 2 0 3 0 0 3 5 5 2 0 5 5 3 5 5 5 5 5 5
6 28 95 97 21 100 100 100 100 100 100 100 5 0 0 5 36 100 18 100 94 5 0 0 0 6 4 5 5 0 4 5 5 0 0 0 5 2 0 5 5 5 5 5
4 16 5 5 58 18 71 100 100 100 100 82 4 4 0 0 1 100 81 90 100 7 0 0 0 0 0 0 1 5 0 5 5 4 0 5 2 0 0 3 5 5 7 8
0 5 24 36 5 5 4 72 100 100 100 0 31 87 0 0 1 23 100 80 80 46 5 20 0 0 0 0 0 1 1 1 1 0 0 0 1 4 5 0 1 6 29 65
0 0 3 7 71 99 96 92 100 100 100 46 87 68 0 4 33 13 6 5 20 100 48 13 97 3 0 0 0 0 0 0 0 0 0 0 0 0 2 0 0 0 5 20
5 5 0 0 5 40 5 89 26 32 97 90 100 85 5 2 0 3 4 5 5 97 100 99 100 100 56 2 0 0 0 0 0 0 0 0 0 0 0 0 0 0 1 4
1 0 1 4 18 1 3 2 78 94 69 5 19 81 5 86 4 2 61 18 17 82 72 100 78 100 100 100 99 36 1 0 0 0 0 5 5 4 0 19 18 0 4 4
7 46 2 3 28 5 4 33 86 30 5 49 5 5 36 100 99 6 0 5 29 99 56 98 53 88 39 16 16 96 94 6 5 0 0 1 14 24 53 38 1 3 9 5
100 16 5 5 2 10 98 89 33 41 6 6 9 1 96 100 100 78 0 2 96 99 100 100 100 78 12 21 32 5 31 95 39 11 4 28 40 56 51 31 18 27 41 96
100 83 22 1 0 0 95 63 96 97 36 66 74 15 5 84 100 100 100 93 86 100 100 100 93 91 5 3 5 89 100 96 89 78 10 34 22 31 41 37 45 56 73 100
100 100 97 93 44 70 51 27 91 100 100 26 20 4 0 1 98 100 100 100 74 98 100 84 100 100 48 5 5 5 100 100 100 100 100 76 25 13 27 37 37 99 100 100
100 100 100 100 84 91 96 82 18 99 85 100 62 92 0 0 3 98 100 100 100 100 100 100 100 100 100 99 10 5 82 100 100 100 100 100 99 100 100 72 80 96 100 100
90 100 100 83 100 100 77 91 100 74 61 100 100 100 23 0 0 1 43 100 100 100 100 100 100 100 100 100 100 100 100 100 100 100 100 100 100 100 98 90 99 100 100 100
84 73 100 99 100 100 96 1 78 100 93 100 97 47 96 12 2 0 0 3 97 100 100 100 100 100 100 100 100 100 100 100 100 100 100 100 100 100 100 100 100 100 100 100
33 100 100 78 100 100 1 27 15 100 94 100 96 96 81 5 6 17 0 2 0 55 100 100 100 100 100 100 100 100 100 100 100 100 100 100 100 100 100 100 100 100 100 100
5 14 95 100 39 100 56 10 75 97 4 100 100 100 59 6 86 0 0 5 5 2 13 99 100 100 100 100 100 100 100 100 100 100 100 100 100 100 100 100 100 100 100 100
77 100 100 100 100 92 0 100 100 100 100 94 100 100 100 99 95 0 28 5 5 7 2 0 13 99 100 100 100 100 100 100 100 100 100 100 100 100 100 100 100 100 100 100
75 100 100 100 100 41 0 86 100 100 29 41 100 100 100 81 100 28 50 50 47 68 9 1 0 0 5 50 100 100 100 100 100 100 100 100 100 100 100 100 100 100 100 100
100 100 100 100 97 69 0 2 23 100 82 11 100 100 100 100 81 91 81 100 100 11 5 4 0 0 0 4 46 100 100 100 100 100 100 100 100 100 100 100 100 100 100 100
77 100 100 100 48 0 38 64 100 20 92 96 100 100 100 100 100 100 64 61 100 18 5 5 4 0 0 0 5 6 28 98 100 100 100 100 100 100 100 100 100 100 100 100
100 100 100 82 24 5 0 85 100 70 6 68 100 100 100 100 100 100 50 2 13 99 41 13 5 0 0 0 0 0 3 95 100 96 100 100 100 100 100 100 100 100 100 100
91 100 100 100 52 14 5 15 63 100 99 24 46 100 100 100 12 76 14 5 59 58 98 31 5 5 3 1 0 0 0 0 24 87 100 100 100 100 100 100 100 100 100 100
95 99 100 100 100 10 27 97 100 32 42 24 13 4 26 98 70 5 20 5 26 100 81 100 49 4 12 99 17 2 4 54 99 100 100 100 100 100 100 100 100 100 100 100